Location: ???????
(55.5931°N, 39.3286°E)
Time: 09:41:18
(UTC+00:00)

Resurs 1-4 Rocket - Pass Details

Date: 14 April 2024
Orbit: 798 x 814 km, 98.7° (Epoch: 19 May)

Event Time Altitude Azimuth Distance (km) Brightness Sun altitude
Rises 01:34:20 0° 12° (NNE) 3,350 5.9 -6.8°
Reaches altitude 10° 01:37:17 10° 355° (N) 2,411 4.9 -6.4°
Maximum altitude 01:40:56 19° 312° (NW) 1,846 3.8 -5.9°
Drops below altitude 10° 01:44:33 10° 268° (W) 2,396 4.0 -5.5°
Enters shadow 01:45:54 - 259° (W) 2,792 4.3 -5.3°
